User: anonymous   Login
Location: Unspecified
(0.0000°N, 0.0000°E)
Time: 08:36:27
(UTC+02:00)
Language:

ATLAS V CENTAUR R/B - Orbit

View from above orbital plane
View from above orbital plane
View from above satellite
View from above satellite

Ground track
Ground track

The orbit data is extracted from the following two-line orbital elements,

1 27500U 02038B   16272.98707192  .00010863  00000-0  15430-2 0  9991
2 27500  17.8083 201.2331 6815189  51.4536 351.9122  2.90094144118250
Epoch (UTC): 28 September 2016 23:41:23
Eccentricity: 0.6815189
inclination: 17.8083°
perigee height: 236 km
apogee height: 28542 km
right ascension of ascending node: 201.2331°
argument of perigee: 51.4536°
revolutions per day: 2.90094144
mean anomaly at epoch: 351.9122°
orbit number at epoch: 11825

The dashed part of the orbit path shows where the satellite is in the earth's shadow,  

DLR